| time (UTC) | temp C | wind direction | speed KPH | gust KPH | rain 1hr cm | rain 24hr cm | rain mn cm | humidity % | barometer mb |
| 20260509184109 | 28 | 42 | 1.6 | 9.7 | 0.00 | 0.03 | 0.03 | 37 | 1012.2 |
| 20260509183604 | 28 | 188 | 1.6 | 3.2 | 0.00 | 0.03 | 0.03 | 37 | 1012.2 |
| 20260509183100 | 28 | 268 | 3.2 | 4.8 | 0.00 | 0.03 | 0.03 | 40 | 1012.2 |
| 20260509182557 | 28 | 73 | 4.8 | 6.4 | 0.00 | 0.03 | 0.03 | 40 | 1012.4 |
| 20260509182053 | 28 | 197 | 1.6 | 4.8 | 0.00 | 0.03 | 0.03 | 37 | 1012.3 |
| 20260509181552 | 28 | 63 | 1.6 | 4.8 | 0.00 | 0.03 | 0.03 | 39 | 1012.4 |
| 20260509181049 | 28 | 114 | 1.6 | 4.8 | 0.00 | 0.03 | 0.03 | 39 | 1012.5 |
| 20260509180544 | 27 | 50 | 1.6 | 12.9 | 0.00 | 0.03 | 0.03 | 38 | 1012.5 |
| 20260509180042 | 28 | 341 | 3.2 | 6.4 | 0.00 | 0.03 | 0.03 | 42 | 1012.6 |
| 20260509175537 | 27 | 197 | 1.6 | 4.8 | 0.00 | 0.03 | 0.03 | 42 | 1012.7 |
| 20260509175035 | 27 | 260 | 3.2 | 3.2 | 0.00 | 0.03 | 0.03 | 42 | 1012.8 |
| 20260509174531 | 28 | 59 | 1.6 | 3.2 | 0.00 | 0.03 | 0.03 | 41 | 1013.0 |
| 20260509174026 | 27 | 318 | 1.6 | 4.8 | 0.00 | 0.03 | 0.03 | 40 | 1012.8 |
| 20260509173520 | 27 | 310 | 0.0 | 3.2 | 0.00 | 0.03 | 0.03 | 41 | 1013.1 |
| 20260509173018 | 27 | 288 | 1.6 | 3.2 | 0.00 | 0.03 | 0.03 | 40 | 1013.1 |
| 20260509172515 | 27 | 207 | 3.2 | 6.4 | 0.00 | 0.03 | 0.03 | 43 | 1013.3 |
| 20260509172010 | 26 | 316 | 0.0 | 3.2 | 0.00 | 0.03 | 0.03 | 45 | 1013.2 |
| 20260509171506 | 26 | 68 | 4.8 | 6.4 | 0.00 | 0.03 | 0.03 | 41 | 1013.3 |
| 20260509171003 | 26 | 43 | 4.8 | 9.7 | 0.00 | 0.03 | 0.03 | 47 | 1013.2 |
| 20260509170458 | 26 | 284 | 3.2 | 11.3 | 0.00 | 0.03 | 0.03 | 49 | 1013.4 |
| 20260509165954 | 25 | 325 | 3.2 | 4.8 | 0.00 | 0.03 | 0.03 | 56 | 1013.5 |
| 20260509165453 | 25 | 60 | 1.6 | 11.3 | 0.00 | 0.03 | 0.03 | 58 | 1013.4 |
| 20260509164949 | 25 | 127 | 4.8 | 9.7 | 0.00 | 0.03 | 0.03 | 59 | 1013.4 |
| 20260509164445 | 25 | 11 | 1.6 | 4.8 | 0.00 | 0.03 | 0.03 | 58 | 1013.3 |
| 20260509163941 | 25 | 244 | 3.2 | 4.8 | 0.00 | 0.03 | 0.03 | 59 | 1013.4 |
| 20260509163439 | 24 | 32 | 4.8 | 6.4 | 0.00 | 0.03 | 0.03 | 59 | 1013.7 |
| 20260509162938 | 25 | 52 | 4.8 | 11.3 | 0.00 | 0.03 | 0.03 | 62 | 1013.6 |
| 20260509162437 | 24 | 242 | 4.8 | 6.4 | 0.00 | 0.03 | 0.03 | 62 | 1013.6 |
| 20260509161932 | 24 | 235 | 3.2 | 9.7 | 0.00 | 0.03 | 0.03 | 64 | 1013.7 |
| 20260509161429 | 23 | 235 | 0.0 | 3.2 | 0.00 | 0.03 | 0.03 | 64 | 1013.8 |
| 20260509160924 | 23 | 99 | 3.2 | 3.2 | 0.00 | 0.03 | 0.03 | 63 | 1013.7 |
| 20260509160420 | 23 | 262 | 3.2 | 4.8 | 0.00 | 0.03 | 0.03 | 63 | 1013.7 |
| 20260509155916 | 23 | 185 | 3.2 | 3.2 | 0.00 | 0.03 | 0.03 | 66 | 1013.5 |
| 20260509155413 | 23 | 223 | 3.2 | 4.8 | 0.00 | 0.03 | 0.03 | 67 | 1013.5 |
| 20260509154909 | 23 | 222 | 1.6 | 4.8 | 0.00 | 0.03 | 0.03 | 64 | 1013.6 |
| 20260509154405 | 23 | 302 | 1.6 | 3.2 | 0.00 | 0.03 | 0.03 | 66 | 1013.4 |
| 20260509153902 | 22 | 343 | 1.6 | 1.6 | 0.00 | 0.03 | 0.03 | 67 | 1013.6 |
| 20260509153400 | 22 | 271 | 0.0 | 1.6 | 0.00 | 0.03 | 0.03 | 70 | 1013.2 |
| 20260509152856 | 22 | 248 | 0.0 | 1.6 | 0.00 | 0.03 | 0.03 | 69 | 1013.4 |
| 20260509152352 | 22 | 108 | 0.0 | 3.2 | 0.00 | 0.03 | 0.03 | 69 | 1013.1 |
| 20260509151850 | 22 | 346 | 0.0 | 0.0 | 0.00 | 0.03 | 0.03 | 75 | 1013.2 |
| 20260509151345 | 22 | 346 | 0.0 | 0.0 | 0.00 | 0.03 | 0.03 | 72 | 1013.6 |
| 20260509150844 | 22 | 343 | 0.0 | 0.0 | 0.00 | 0.03 | 0.03 | 72 | 1013.5 |
| 20260509150341 | 22 | 343 | 0.0 | 1.6 | 0.00 | 0.03 | 0.03 | 74 | 1013.3 |
| 20260509145838 | 22 | 343 | 1.6 | 4.8 | 0.00 | 0.03 | 0.03 | 76 | 1013.2 |
| 20260509145333 | 22 | 344 | 0.0 | 3.2 | 0.00 | 0.03 | 0.03 | 78 | 1013.1 |
| 20260509144830 | 21 | 24 | 0.0 | 1.6 | 0.00 | 0.03 | 0.03 | 81 | 1013.1 |
| 20260509144327 | 21 | 38 | 1.6 | 1.6 | 0.00 | 0.03 | 0.03 | 82 | 1013.0 |
| 20260509143824 | 20 | 15 | 0.0 | 1.6 | 0.00 | 0.03 | 0.03 | 84 | 1013.2 |
| 20260509143321 | 20 | 67 | 0.0 | 3.2 | 0.00 | 0.03 | 0.03 | 85 | 1013.4 |
| 20260509142817 | 19 | 73 | 0.0 | 0.0 | 0.00 | 0.03 | 0.03 | 86 | 1013.1 |
| 20260509142313 | 18 | 114 | 0.0 | 1.6 | 0.00 | 0.03 | 0.03 | 90 | 1013.5 |
| 20260509141809 | 17 | 216 | 0.0 | 0.0 | 0.00 | 0.03 | 0.03 | 96 | 1013.6 |
| 20260509141306 | 17 | 216 | 0.0 | 1.6 | 0.00 | 0.03 | 0.03 | 96 | 1013.5 |
| 20260509140803 | 17 | 232 | 0.0 | 0.0 | 0.00 | 0.03 | 0.03 | 99 | 1013.6 |
| 20260509140300 | 16 | 279 | 0.0 | 0.0 | 0.13 | 0.03 | 0.03 | 99 | 1013.4 |
| 20260509135758 | 16 | 278 | 0.0 | 1.6 | 0.13 | 0.03 | 0.03 | 99 | 1013.4 |
| 20260509135255 | 16 | 28 | 0.0 | 0.0 | 0.00 | 0.00 | 0.00 | 99 | 1013.2 |
| 20260509134752 | 16 | 261 | 0.0 | 0.0 | 0.00 | 0.00 | 0.00 | 99 | 1013.4 |
| 20260509134250 | 15 | 278 | 0.0 | 0.0 | 0.00 | 0.00 | 0.00 | 99 | 1013.3 |
| 20260509133746 | 15 | 278 | 0.0 | 0.0 | 0.00 | 0.00 | 0.00 | 99 | 1013.2 |
| 20260509133243 | 15 | 283 | 0.0 | 0.0 | 0.00 | 0.00 | 0.00 | 99 | 1013.1 |
| 20260509132742 | 15 | 231 | 0.0 | 0.0 | 0.00 | 0.00 | 0.00 | 99 | 1013.0 |
| 20260509132240 | 14 | 256 | 0.0 | 0.0 | 0.00 | 0.00 | 0.00 | 99 | 1012.8 |
| 20260509131736 | 14 | 345 | 0.0 | 0.0 | 0.00 | 0.00 | 0.00 | 99 | 1013.0 |
| 20260509131233 | 13 | 332 | 0.0 | 0.0 | 0.00 | 0.00 | 0.00 | 99 | 1012.8 |
| 20260509130729 | 13 | 258 | 0.0 | 0.0 | 0.00 | 0.00 | 0.00 | 99 | 1012.6 |
| 20260509130225 | 13 | 355 | 0.0 | 0.0 | 0.00 | 0.00 | 0.00 | 99 | 1012.6 |
| 20260509125722 | 13 | 245 | 0.0 | 0.0 | 0.00 | 0.00 | 0.00 | 99 | 1012.6 |
| 20260509125219 | 12 | 245 | 0.0 | 0.0 | 0.00 | 0.00 | 0.00 | 99 | 1012.6 |
| 20260509124715 | 12 | 245 | 0.0 | 0.0 | 0.00 | 0.00 | 0.00 | 99 | 1012.4 |
| 20260509124212 | 12 | 245 | 0.0 | 0.0 | 0.00 | 0.00 | 0.00 | 99 | 1012.6 |
| 20260509123710 | 12 | 247 | 0.0 | 0.0 | 0.00 | 0.00 | 0.00 | 99 | 1012.5 |
| 20260509123207 | 12 | 248 | 0.0 | 0.0 | 0.00 | 0.00 | 0.00 | 99 | 1012.3 |
| 20260509122702 | 12 | 259 | 0.0 | 0.0 | 0.00 | 0.00 | 0.00 | 99 | 1012.3 |
| 20260509122159 | 12 | 249 | 0.0 | 0.0 | 0.00 | 0.00 | 0.00 | 99 | 1012.3 |
| 20260509121655 | 12 | 246 | 0.0 | 0.0 | 0.00 | 0.00 | 0.00 | 99 | 1012.3 |
| 20260509121153 | 12 | 246 | 0.0 | 0.0 | 0.00 | 0.00 | 0.00 | 99 | 1012.2 |
| 20260509120651 | 12 | 245 | 0.0 | 0.0 | 0.00 | 0.00 | 0.00 | 99 | 1012.2 |
| 20260509120149 | 12 | 246 | 0.0 | 0.0 | 0.00 | 0.00 | 0.00 | 99 | 1012.1 |
| 20260509115646 | 12 | 287 | 0.0 | 0.0 | 0.00 | 0.00 | 0.00 | 99 | 1012.1 |
| 20260509115144 | 12 | 288 | 0.0 | 0.0 | 0.00 | 0.00 | 0.00 | 99 | 1012.1 |
| 20260509114642 | 12 | 288 | 0.0 | 0.0 | 0.00 | 0.00 | 0.00 | 99 | 1012.1 |
| 20260509114141 | 12 | 288 | 0.0 | 0.0 | 0.00 | 0.00 | 0.00 | 99 | 1012.0 |
| 20260509113638 | 12 | 289 | 0.0 | 0.0 | 0.00 | 0.00 | 0.00 | 99 | 1011.9 |
| 20260509113135 | 12 | 289 | 0.0 | 0.0 | 0.00 | 0.00 | 0.00 | 99 | 1011.8 |
| 20260509112632 | 12 | 288 | 0.0 | 0.0 | 0.00 | 0.00 | 0.00 | 99 | 1011.9 |
| 20260509112129 | 12 | 291 | 0.0 | 0.0 | 0.00 | 0.00 | 0.00 | 99 | 1011.8 |
| 20260509111626 | 12 | 302 | 0.0 | 0.0 | 0.00 | 0.00 | 0.00 | 99 | 1011.7 |
| 20260509111123 | 12 | 302 | 0.0 | 0.0 | 0.00 | 0.00 | 0.00 | 99 | 1011.7 |
| 20260509110620 | 12 | 302 | 0.0 | 0.0 | 0.00 | 0.00 | 0.00 | 99 | 1011.6 |
| 20260509110117 | 12 | 301 | 0.0 | 0.0 | 0.00 | 0.00 | 0.00 | 99 | 1011.8 |
| 20260509105615 | 12 | 1 | 0.0 | 0.0 | 0.00 | 0.00 | 0.00 | 99 | 1011.7 |
| 20260509105113 | 12 | 1 | 0.0 | 0.0 | 0.00 | 0.00 | 0.00 | 99 | 1011.7 |
| 20260509104609 | 12 | 1 | 0.0 | 0.0 | 0.00 | 0.00 | 0.00 | 99 | 1011.6 |
| 20260509104108 | 12 | 1 | 0.0 | 0.0 | 0.00 | 0.00 | 0.00 | 99 | 1011.7 |
| 20260509103604 | 12 | 1 | 0.0 | 0.0 | 0.00 | 0.00 | 0.00 | 99 | 1011.8 |
| 20260509103102 | 12 | 1 | 0.0 | 0.0 | 0.00 | 0.00 | 0.00 | 99 | 1011.8 |
| 20260509102559 | 12 | 1 | 0.0 | 0.0 | 0.00 | 0.00 | 0.00 | 99 | 1012.0 |
| 20260509102056 | 12 | 1 | 0.0 | 0.0 | 0.00 | 0.00 | 0.00 | 99 | 1011.9 |
| 20260509101552 | 12 | 1 | 0.0 | 0.0 | 0.00 | 0.00 | 0.00 | 99 | 1011.9 |
| 20260509101049 | 12 | 1 | 0.0 | 0.0 | 0.00 | 0.00 | 0.00 | 99 | 1012.1 |
| 20260509100546 | 12 | 2 | 0.0 | 0.0 | 0.00 | 0.00 | 0.00 | 99 | 1012.1 |
| 20260509100044 | 12 | 2 | 0.0 | 0.0 | 0.00 | 0.00 | 0.00 | 99 | 1012.0 |
| 20260509095540 | 12 | 2 | 0.0 | 0.0 | 0.00 | 0.00 | 0.00 | 99 | 1012.3 |
| 20260509095037 | 12 | 2 | 0.0 | 0.0 | 0.00 | 0.00 | 0.00 | 99 | 1012.4 |
| 20260509094533 | 12 | 50 | 0.0 | 0.0 | 0.00 | 0.00 | 0.00 | 99 | 1012.5 |
| 20260509094031 | 13 | 50 | 0.0 | 0.0 | 0.00 | 0.00 | 0.00 | 99 | 1012.3 |
| 20260509093529 | 13 | 50 | 0.0 | 0.0 | 0.00 | 0.00 | 0.00 | 99 | 1012.3 |
| 20260509093026 | 13 | 50 | 0.0 | 0.0 | 0.00 | 0.00 | 0.00 | 99 | 1012.3 |
| 20260509092524 | 13 | 56 | 0.0 | 0.0 | 0.00 | 0.00 | 0.00 | 99 | 1012.3 |
| 20260509092023 | 13 | 56 | 0.0 | 0.0 | 0.00 | 0.00 | 0.00 | 99 | 1012.3 |
| 20260509091519 | 13 | 56 | 0.0 | 0.0 | 0.00 | 0.00 | 0.00 | 99 | 1012.2 |
| 20260509091016 | 13 | 56 | 0.0 | 0.0 | 0.00 | 0.00 | 0.00 | 99 | 1012.4 |
| 20260509090513 | 13 | 56 | 0.0 | 0.0 | 0.00 | 0.00 | 0.00 | 99 | 1012.3 |
| 20260509090011 | 13 | 56 | 0.0 | 0.0 | 0.00 | 0.00 | 0.00 | 99 | 1012.4 |
| 20260509085508 | 13 | 55 | 0.0 | 0.0 | 0.00 | 0.00 | 0.00 | 99 | 1012.3 |
| 20260509085004 | 13 | 55 | 0.0 | 0.0 | 0.00 | 0.00 | 0.00 | 99 | 1012.1 |
| 20260509084501 | 13 | 55 | 0.0 | 0.0 | 0.00 | 0.00 | 0.00 | 99 | 1012.1 |
| 20260509083958 | 14 | 55 | 0.0 | 0.0 | 0.00 | 0.00 | 0.00 | 99 | 1012.1 |
| 20260509083455 | 13 | 56 | 0.0 | 0.0 | 0.00 | 0.00 | 0.00 | 99 | 1012.4 |
| 20260509082952 | 13 | 56 | 0.0 | 0.0 | 0.00 | 0.00 | 0.00 | 99 | 1012.1 |
| 20260509082449 | 13 | 56 | 0.0 | 0.0 | 0.00 | 0.00 | 0.00 | 99 | 1012.1 |
| 20260509081946 | 13 | 56 | 0.0 | 0.0 | 0.00 | 0.00 | 0.00 | 99 | 1012.0 |
| 20260509081444 | 13 | 56 | 0.0 | 0.0 | 0.00 | 0.00 | 0.00 | 99 | 1012.1 |
| 20260509080940 | 14 | 56 | 0.0 | 0.0 | 0.00 | 0.00 | 0.00 | 99 | 1012.2 |
| 20260509080439 | 13 | 56 | 0.0 | 0.0 | 0.00 | 0.00 | 0.00 | 99 | 1012.4 |
| 20260509075936 | 13 | 56 | 0.0 | 0.0 | 0.00 | 0.00 | 0.00 | 99 | 1012.5 |
| 20260509075433 | 14 | 56 | 0.0 | 0.0 | 0.00 | 0.00 | 0.00 | 99 | 1012.4 |
| 20260509074931 | 14 | 56 | 0.0 | 0.0 | 0.00 | 0.00 | 0.00 | 99 | 1012.7 |
| 20260509074428 | 14 | 56 | 0.0 | 0.0 | 0.00 | 0.00 | 0.00 | 99 | 1012.7 |
| 20260509073924 | 14 | 56 | 0.0 | 0.0 | 0.00 | 0.00 | 0.00 | 98 | 1012.6 |
| 20260509073421 | 14 | 56 | 0.0 | 0.0 | 0.00 | 0.00 | 0.00 | 98 | 1012.8 |
| 20260509072917 | 14 | 56 | 0.0 | 0.0 | 0.00 | 0.00 | 0.00 | 98 | 1013.0 |
| 20260509072414 | 14 | 72 | 0.0 | 0.0 | 0.00 | 0.00 | 0.00 | 98 | 1012.7 |
| 20260509071911 | 14 | 72 | 0.0 | 0.0 | 0.00 | 0.00 | 0.00 | 98 | 1012.8 |
| 20260509071408 | 15 | 74 | 0.0 | 0.0 | 0.00 | 0.00 | 0.00 | 98 | 1013.0 |
| 20260509070906 | 15 | 135 | 0.0 | 0.0 | 0.00 | 0.00 | 0.00 | 98 | 1013.0 |
| 20260509070402 | 15 | 135 | 0.0 | 0.0 | 0.00 | 0.00 | 0.00 | 98 | 1012.7 |
| 20260509065857 | 15 | 135 | 0.0 | 0.0 | 0.00 | 0.00 | 0.00 | 98 | 1012.8 |
| 20260509065354 | 15 | 136 | 0.0 | 0.0 | 0.00 | 0.00 | 0.00 | 98 | 1012.8 |
| 20260509064850 | 15 | 136 | 0.0 | 0.0 | 0.00 | 0.00 | 0.00 | 98 | 1012.6 |
| 20260509064348 | 15 | 133 | 0.0 | 0.0 | 0.00 | 0.00 | 0.00 | 98 | 1012.7 |
| 20260509063845 | 15 | 47 | 0.0 | 0.0 | 0.00 | 0.00 | 0.00 | 97 | 1012.5 |
| 20260509063341 | 15 | 48 | 0.0 | 0.0 | 0.00 | 0.00 | 0.00 | 98 | 1012.8 |
| 20260509062839 | 15 | 327 | 0.0 | 0.0 | 0.00 | 0.00 | 0.00 | 98 | 1012.7 |
| 20260509062336 | 15 | 212 | 0.0 | 0.0 | 0.00 | 0.00 | 0.00 | 98 | 1013.0 |
| 20260509061833 | 15 | 176 | 0.0 | 0.0 | 0.00 | 0.00 | 0.00 | 97 | 1013.0 |
| 20260509061331 | 15 | 3 | 0.0 | 0.0 | 0.00 | 0.00 | 0.00 | 97 | 1012.8 |
| 20260509060828 | 15 | 3 | 0.0 | 0.0 | 0.00 | 0.00 | 0.00 | 97 | 1013.0 |
| 20260509060325 | 15 | 3 | 0.0 | 0.0 | 0.00 | 0.00 | 0.00 | 97 | 1013.1 |
| 20260509055820 | 15 | 5 | 0.0 | 0.0 | 0.00 | 0.00 | 0.00 | 97 | 1013.0 |
| 20260509055315 | 15 | 40 | 0.0 | 0.0 | 0.00 | 0.00 | 0.00 | 97 | 1013.0 |
| 20260509054813 | 15 | 91 | 0.0 | 0.0 | 0.00 | 0.00 | 0.00 | 97 | 1013.0 |
| 20260509054309 | 15 | 296 | 0.0 | 0.0 | 0.00 | 0.00 | 0.00 | 96 | 1013.0 |
| 20260509053808 | 16 | 296 | 0.0 | 0.0 | 0.00 | 0.00 | 0.00 | 96 | 1013.0 |
| 20260509053304 | 16 | 295 | 0.0 | 0.0 | 0.00 | 0.00 | 0.00 | 96 | 1012.7 |
| 20260509052803 | 16 | 297 | 0.0 | 0.0 | 0.00 | 0.00 | 0.00 | 95 | 1012.6 |
| 20260509052300 | 16 | 267 | 0.0 | 0.0 | 0.00 | 0.00 | 0.00 | 95 | 1012.8 |
| 20260509051758 | 16 | 159 | 0.0 | 0.0 | 0.00 | 0.00 | 0.00 | 95 | 1012.7 |
| 20260509051256 | 16 | 215 | 0.0 | 1.6 | 0.00 | 0.00 | 0.00 | 95 | 1012.6 |
| 20260509050752 | 16 | 320 | 0.0 | 0.0 | 0.00 | 0.00 | 0.00 | 95 | 1012.6 |
| 20260509050248 | 16 | 272 | 0.0 | 0.0 | 0.00 | 0.00 | 0.00 | 95 | 1012.8 |
| 20260509045746 | 16 | 292 | 0.0 | 0.0 | 0.00 | 0.76 | 0.76 | 96 | 1012.8 |
| 20260509045242 | 16 | 148 | 0.0 | 0.0 | 0.00 | 0.76 | 0.76 | 96 | 1013.0 |
| 20260509044740 | 16 | 148 | 0.0 | 1.6 | 0.00 | 0.76 | 0.76 | 97 | 1012.8 |
| 20260509044237 | 16 | 148 | 1.6 | 3.2 | 0.00 | 0.76 | 0.76 | 97 | 1013.0 |
| 20260509043734 | 16 | 148 | 0.0 | 0.0 | 0.00 | 0.76 | 0.76 | 97 | 1013.0 |
| 20260509043230 | 16 | 148 | 0.0 | 0.0 | 0.00 | 0.76 | 0.76 | 97 | 1013.0 |
| 20260509042726 | 16 | 4 | 0.0 | 4.8 | 0.00 | 0.76 | 0.76 | 98 | 1013.1 |
| 20260509042222 | 16 | 105 | 0.0 | 3.2 | 0.00 | 0.76 | 0.76 | 98 | 1013.1 |
| 20260509041719 | 16 | 105 | 0.0 | 1.6 | 0.00 | 0.76 | 0.76 | 98 | 1012.7 |
| 20260509041216 | 16 | 105 | 0.0 | 0.0 | 0.00 | 0.76 | 0.76 | 98 | 1012.7 |
| 20260509040715 | 16 | 105 | 0.0 | 0.0 | 0.00 | 0.76 | 0.76 | 98 | 1012.7 |
| 20260509040211 | 16 | 105 | 0.0 | 0.0 | 0.00 | 0.76 | 0.76 | 98 | 1012.5 |
| 20260509035708 | 16 | 105 | 0.0 | 0.0 | 0.00 | 0.76 | 0.76 | 98 | 1012.4 |
| 20260509035204 | 16 | 105 | 0.0 | 0.0 | 0.00 | 0.76 | 0.76 | 98 | 1012.6 |
| 20260509034702 | 16 | 105 | 0.0 | 1.6 | 0.00 | 0.76 | 0.76 | 98 | 1012.6 |
| 20260509034159 | 16 | 105 | 0.0 | 1.6 | 0.00 | 0.76 | 0.76 | 98 | 1012.3 |
| 20260509033656 | 16 | 105 | 0.0 | 0.0 | 0.00 | 0.76 | 0.76 | 98 | 1012.2 |
| 20260509033153 | 16 | 105 | 0.0 | 0.0 | 0.00 | 0.76 | 0.76 | 98 | 1011.8 |
| 20260509032650 | 16 | 105 | 0.0 | 0.0 | 0.00 | 0.76 | 0.76 | 98 | 1011.9 |
| 20260509032147 | 16 | 105 | 0.0 | 0.0 | 0.00 | 0.76 | 0.76 | 98 | 1011.8 |
| 20260509031645 | 16 | 105 | 0.0 | 0.0 | 0.00 | 0.76 | 0.76 | 98 | 1011.7 |
| 20260509031142 | 16 | 105 | 0.0 | 0.0 | 0.00 | 0.76 | 0.76 | 98 | 1011.6 |
| 20260509030640 | 17 | 105 | 0.0 | 0.0 | 0.00 | 0.76 | 0.76 | 98 | 1011.4 |
| 20260509030137 | 17 | 105 | 0.0 | 1.6 | 0.00 | 0.76 | 0.76 | 98 | 1011.1 |
| 20260509025633 | 17 | 105 | 0.0 | 0.0 | 0.00 | 0.76 | 0.76 | 98 | 1011.1 |
| 20260509025129 | 17 | 105 | 0.0 | 0.0 | 0.00 | 0.76 | 0.76 | 98 | 1011.0 |
| 20260509024625 | 17 | 104 | 0.0 | 1.6 | 0.00 | 0.76 | 0.76 | 98 | 1011.1 |
| 20260509024121 | 17 | 347 | 0.0 | 1.6 | 0.00 | 0.76 | 0.76 | 98 | 1011.0 |
| 20260509023619 | 17 | 94 | 0.0 | 0.0 | 0.00 | 0.76 | 0.76 | 98 | 1011.0 |
| 20260509023116 | 17 | 94 | 0.0 | 0.0 | 0.00 | 0.76 | 0.76 | 98 | 1011.1 |
| 20260509022612 | 17 | 94 | 0.0 | 0.0 | 0.00 | 0.76 | 0.76 | 97 | 1011.0 |
| 20260509022110 | 17 | 94 | 0.0 | 0.0 | 0.00 | 0.76 | 0.76 | 97 | 1011.0 |
| 20260509021607 | 17 | 94 | 0.0 | 0.0 | 0.00 | 0.76 | 0.76 | 97 | 1010.6 |
| 20260509021104 | 17 | 94 | 0.0 | 0.0 | 0.00 | 0.76 | 0.76 | 97 | 1010.8 |
| 20260509020602 | 17 | 94 | 1.6 | 1.6 | 0.00 | 0.76 | 0.76 | 97 | 1010.6 |
| 20260509020058 | 17 | 94 | 0.0 | 0.0 | 0.00 | 0.76 | 0.76 | 96 | 1010.3 |
| 20260509015558 | 17 | 94 | 0.0 | 0.0 | 0.00 | 0.76 | 0.76 | 96 | 1010.3 |
| 20260509015055 | 17 | 94 | 0.0 | 0.0 | 0.00 | 0.76 | 0.76 | 95 | 1010.1 |
| 20260509014551 | 17 | 94 | 0.0 | 0.0 | 0.00 | 0.76 | 0.76 | 95 | 1010.0 |
| 20260509014047 | 17 | 94 | 0.0 | 0.0 | 0.00 | 0.76 | 0.76 | 95 | 1009.6 |
| 20260509013544 | 18 | 94 | 0.0 | 0.0 | 0.00 | 0.76 | 0.76 | 94 | 1009.7 |
| 20260509013040 | 18 | 94 | 0.0 | 0.0 | 0.00 | 0.76 | 0.76 | 93 | 1009.5 |
| 20260509012537 | 18 | 93 | 0.0 | 0.0 | 0.00 | 0.76 | 0.76 | 93 | 1009.5 |
| 20260509012034 | 18 | 93 | 0.0 | 0.0 | 0.00 | 0.76 | 0.76 | 92 | 1009.6 |
| 20260509011532 | 18 | 214 | 0.0 | 0.0 | 0.00 | 0.76 | 0.76 | 91 | 1009.7 |
| 20260509011029 | 19 | 211 | 0.0 | 1.6 | 0.00 | 0.76 | 0.76 | 90 | 1009.6 |
| 20260509010526 | 19 | 99 | 0.0 | 3.2 | 0.00 | 0.76 | 0.76 | 90 | 1009.6 |
| 20260509010023 | 19 | 89 | 0.0 | 1.6 | 0.00 | 0.76 | 0.76 | 90 | 1009.7 |
| 20260509005521 | 19 | 319 | 1.6 | 3.2 | 0.00 | 0.76 | 0.76 | 91 | 1009.7 |
| 20260509005021 | 19 | 175 | 0.0 | 1.6 | 0.00 | 0.76 | 0.76 | 91 | 1009.4 |
| 20260509004518 | 20 | 176 | 0.0 | 3.2 | 0.00 | 0.76 | 0.76 | 91 | 1009.3 |
| 20260509004015 | 19 | 177 | 0.0 | 1.6 | 0.00 | 0.76 | 0.76 | 91 | 1009.5 |
| 20260509003513 | 20 | 166 | 0.0 | 1.6 | 0.00 | 0.76 | 0.76 | 93 | 1009.0 |
| 20260509003010 | 20 | 166 | 0.0 | 1.6 | 0.00 | 0.76 | 0.76 | 93 | 1008.9 |
| 20260509002508 | 20 | 166 | 0.0 | 1.6 | 0.00 | 0.76 | 0.76 | 91 | 1008.5 |
| 20260509002004 | 20 | 166 | 0.0 | 1.6 | 0.00 | 0.76 | 0.76 | 91 | 1008.7 |
| 20260509001501 | 19 | 256 | 1.6 | 3.2 | 0.00 | 0.76 | 0.76 | 95 | 1008.3 |
| 20260509000958 | 19 | 310 | 0.0 | 1.6 | 0.00 | 0.76 | 0.76 | 96 | 1008.3 |
| 20260509000456 | 19 | 22 | 0.0 | 1.6 | 0.00 | 0.76 | 0.76 | 98 | 1008.3 |
| 20260508235951 | 18 | 42 | 0.0 | 4.8 | 0.00 | 0.76 | 0.76 | 98 | 1008.3 |
| 20260508235450 | 19 | 271 | 0.0 | 1.6 | 0.00 | 0.76 | 0.76 | 99 | 1008.3 |
| 20260508234946 | 20 | 36 | 0.0 | 0.0 | 0.00 | 0.76 | 0.76 | 99 | 1008.1 |
| 20260508234443 | 20 | 203 | 0.0 | 0.0 | 0.00 | 0.76 | 0.76 | 99 | 1008.1 |
| 20260508233940 | 20 | 144 | 0.0 | 0.0 | 0.00 | 0.76 | 0.76 | 99 | 1008.1 |
| 20260508233440 | 19 | 279 | 0.0 | 0.0 | 0.00 | 0.76 | 0.76 | 99 | 1007.7 |
| 20260508232936 | 19 | 37 | 0.0 | 0.0 | 0.00 | 0.76 | 0.76 | 98 | 1007.7 |
| 20260508232433 | 19 | 34 | 0.0 | 1.6 | 0.00 | 0.76 | 0.76 | 98 | 1007.6 |
| 20260508231930 | 18 | 270 | 0.0 | 1.6 | 0.00 | 0.76 | 0.76 | 97 | 1007.9 |
| 20260508231428 | 18 | 44 | 1.6 | 3.2 | 0.00 | 0.76 | 0.76 | 96 | 1007.8 |
| 20260508230924 | 18 | 59 | 1.6 | 3.2 | 0.30 | 0.76 | 0.76 | 95 | 1008.1 |
| 20260508230421 | 18 | 19 | 0.0 | 9.7 | 3.25 | 0.76 | 0.76 | 93 | 1008.5 |
| 20260508225918 | 19 | 82 | 0.0 | 1.6 | 4.32 | 0.71 | 0.71 | 91 | 1008.7 |
| 20260508225415 | 22 | 340 | 3.2 | 12.9 | 1.37 | 0.23 | 0.23 | 81 | 1009.9 |
| 20260508224913 | 27 | 285 | 0.0 | 1.6 | 0.00 | 0.00 | 0.00 | 52 | 1008.7 |
| 20260508224410 | 27 | 285 | 0.0 | 1.6 | 0.00 | 0.00 | 0.00 | 48 | 1008.0 |
| 20260508223907 | 27 | 337 | 0.0 | 3.2 | 0.00 | 0.00 | 0.00 | 48 | 1007.7 |
| 20260508223405 | 27 | 242 | 0.0 | 1.6 | 0.00 | 0.00 | 0.00 | 47 | 1007.6 |
| 20260508222902 | 27 | 130 | 1.6 | 4.8 | 0.00 | 0.00 | 0.00 | 47 | 1007.6 |
| 20260508222359 | 27 | 223 | 1.6 | 3.2 | 0.00 | 0.00 | 0.00 | 47 | 1007.5 |
| 20260508221856 | 27 | 88 | 3.2 | 4.8 | 0.00 | 0.00 | 0.00 | 47 | 1007.6 |
| 20260508221351 | 27 | 244 | 1.6 | 4.8 | 0.00 | 0.00 | 0.00 | 47 | 1007.4 |
| 20260508220848 | 28 | 198 | 1.6 | 11.3 | 0.00 | 0.00 | 0.00 | 47 | 1007.5 |
| 20260508220344 | 28 | 234 | 4.8 | 6.4 | 0.00 | 0.00 | 0.00 | 46 | 1007.4 |
| 20260508215841 | 28 | 150 | 1.6 | 14.5 | 0.00 | 0.00 | 0.00 | 46 | 1007.5 |
| 20260508215338 | 29 | 242 | 4.8 | 11.3 | 0.00 | 0.00 | 0.00 | 45 | 1007.6 |
| 20260508214834 | 29 | 195 | 3.2 | 17.7 | 0.00 | 0.00 | 0.00 | 45 | 1007.7 |
| 20260508214332 | 30 | 332 | 6.4 | 9.7 | 0.00 | 0.00 | 0.00 | 44 | 1008.1 |
| 20260508213828 | 30 | 218 | 9.7 | 14.5 | 0.00 | 0.00 | 0.00 | 43 | 1008.0 |
| 20260508213325 | 30 | 243 | 4.8 | 11.3 | 0.00 | 0.00 | 0.00 | 44 | 1008.1 |
| 20260508212821 | 30 | 296 | 6.4 | 11.3 | 0.00 | 0.00 | 0.00 | 44 | 1008.3 |
| 20260508212318 | 30 | 237 | 3.2 | 4.8 | 0.00 | 0.00 | 0.00 | 44 | 1008.3 |
| 20260508211813 | 30 | 246 | 1.6 | 4.8 | 0.00 | 0.00 | 0.00 | 44 | 1008.7 |
| 20260508211309 | 29 | 222 | 3.2 | 6.4 | 0.00 | 0.00 | 0.00 | 46 | 1008.8 |
| 20260508210807 | 29 | 311 | 3.2 | 6.4 | 0.00 | 0.00 | 0.00 | 47 | 1008.8 |
| 20260508210304 | 30 | 131 | 4.8 | 11.3 | 0.00 | 0.00 | 0.00 | 47 | 1009.0 |
| 20260508205801 | 30 | 240 | 6.4 | 11.3 | 0.00 | 0.00 | 0.00 | 45 | 1009.1 |
| 20260508205257 | 29 | 230 | 3.2 | 11.3 | 0.00 | 0.00 | 0.00 | 47 | 1009.2 |
| 20260508204753 | 30 | 170 | 3.2 | 6.4 | 0.00 | 0.00 | 0.00 | 48 | 1009.4 |
| 20260508204250 | 30 | 134 | 1.6 | 6.4 | 0.00 | 0.00 | 0.00 | 47 | 1009.4 |
| 20260508203746 | 28 | 200 | 1.6 | 6.4 | 0.00 | 0.00 | 0.00 | 49 | 1009.3 |
| 20260508203242 | 29 | 135 | 6.4 | 16.1 | 0.00 | 0.00 | 0.00 | 47 | 1009.5 |
| 20260508202738 | 29 | 26 | 3.2 | 4.8 | 0.00 | 0.00 | 0.00 | 48 | 1009.5 |
| 20260508202236 | 28 | 218 | 1.6 | 4.8 | 0.00 | 0.00 | 0.00 | 49 | 1009.7 |
| 20260508201733 | 28 | 48 | 1.6 | 4.8 | 0.00 | 0.00 | 0.00 | 48 | 1009.6 |
| 20260508201229 | 28 | 239 | 3.2 | 9.7 | 0.00 | 0.00 | 0.00 | 47 | 1009.9 |
| 20260508200726 | 28 | 9 | 0.0 | 9.7 | 0.00 | 0.00 | 0.00 | 49 | 1009.9 |
| 20260508200222 | 29 | 275 | 1.6 | 6.4 | 0.00 | 0.00 | 0.00 | 46 | 1010.1 |
| 20260508195719 | 28 | 178 | 1.6 | 3.2 | 0.00 | 0.00 | 0.00 | 48 | 1010.1 |
| 20260508195215 | 28 | 46 | 1.6 | 4.8 | 0.00 | 0.00 | 0.00 | 49 | 1010.0 |
| 20260508194712 | 28 | 213 | 4.8 | 6.4 | 0.00 | 0.00 | 0.00 | 49 | 1010.1 |
| 20260508194209 | 28 | 191 | 1.6 | 9.7 | 0.00 | 0.00 | 0.00 | 49 | 1010.2 |
| 20260508193706 | 28 | 291 | 11.3 | 14.5 | 0.00 | 0.00 | 0.00 | 49 | 1010.4 |
| 20260508193202 | 28 | 343 | 6.4 | 12.9 | 0.00 | 0.00 | 0.00 | 49 | 1010.4 |
| 20260508192659 | 28 | 257 | 3.2 | 6.4 | 0.00 | 0.00 | 0.00 | 49 | 1010.5 |
| 20260508192156 | 28 | 303 | 6.4 | 11.3 | 0.00 | 0.00 | 0.00 | 49 | 1010.4 |
| 20260508191653 | 28 | 257 | 4.8 | 11.3 | 0.00 | 0.00 | 0.00 | 48 | 1010.3 |
| 20260508191149 | 28 | 251 | 3.2 | 6.4 | 0.00 | 0.00 | 0.00 | 50 | 1010.4 |
| 20260508190647 | 27 | 310 | 1.6 | 4.8 | 0.00 | 0.00 | 0.00 | 49 | 1010.4 |
| 20260508190143 | 27 | 149 | 6.4 | 11.3 | 0.00 | 0.00 | 0.00 | 50 | 1010.5 |
| 20260508185640 | 27 | 151 | 6.4 | 12.9 | 0.00 | 0.00 | 0.00 | 49 | 1010.6 |
| 20260508185138 | 27 | 289 | 3.2 | 12.9 | 0.00 | 0.00 | 0.00 | 51 | 1010.5 |
| 20260508184635 | 27 | 243 | 6.4 | 11.3 | 0.00 | 0.00 | 0.00 | 51 | 1010.7 |